Regional Weather Roundup
Issued by NWS Sterling, VA

Home | Current Version | Previous Version | Text Only | Print | Product List | Glossary On
Versions: 1 2 3 4 5 6 7 8 9 10 11 12 13 14 15 16 17 18 19 20 21 22 23 24 25 26 27
000
ASUS41 KLWX 230010
RWRLWX

REGIONAL WEATHER ROUNDUP
NATIONAL WEATHER SERVICE BALTIMORE MD/WASHINGTON DC
700 PM EST SUN JAN 22 2017

Note: "FAIR" indicates few or no clouds below 12,000 feet
with no significant weather and/or obstructions to visibility.
 TC=TEMPERATURE CELSIUS

 * =Non NWS site. Station does not report precipitation (e.g. rain,
    snow, etc.), thunder, or fog.

DCZ001-MDZ009-015-VAZ040>042-051-053>054-230100-
WASHINGTON METRO

CITY           SKY/WX    TMP DP  RH WIND       PRES   REMARKS
WASHINGTON NAT CLOUDY    50  49  96 NE13      29.63F
DULLES         CLOUDY    49  46  90 N6        29.63S
ANDREWS AFB    CLOUDY    50  48  93 NE9       29.62S
FT BELVOIR     CLOUDY    50  48  93 CALM      29.63R
QUANTICO       LGT RAIN  50  50 100 NE9       29.64R VSB 1
COLLEGE PARK*  CLOUDY    50  46  87 NE7       29.63S
LEESBURG*      DRIZZLE   50  50 100 N6        29.65R
MANASSAS*      CLOUDY   N/A N/A N/A MISG      29.63S FOG
GAITHERSBURG*  CLOUDY    48  46  93 NE5       29.67F

$$

MDZ006>007-011-014-230100-
BALTIMORE METRO

CITY           SKY/WX    TMP DP  RH WIND       PRES   REMARKS
BWI AIRPORT    CLOUDY    49  49 100 NE10      29.64S
MD SCIENCE CTR   N/A     51  47  86 MISG      29.66R
MARTIN STATE   CLOUDY    50  50 100 CALM      29.67R FOG
ANNAPOLIS      CLOUDY    49  47  93 N7        29.64R FOG
FORT MEADE*    CLOUDY    48  46  93 NE8       29.66F

$$

MDZ012-015-019>023-230100-
MARYLAND EASTERN SHORE

CITY           SKY/WX    TMP DP  RH WIND       PRES   REMARKS
OCEAN CITY     CLOUDY    47  47 100 NE16G24   29.60F FOG
SALISBURY      LGT RAIN  50  49  96 NE12      29.61R FOG
BAY BRIDGE AP* CLOUDY    48  48 100 NE9       29.64F FOG
CAMBRIDGE*     CLOUDY    48  48 100 NE7       29.61S
EASTON*        CLOUDY    50  48  93 NE9       29.67R FOG

$$

MDZ017>025-230100-
SOUTHERN MARYLAND

CITY           SKY/WX    TMP DP  RH WIND       PRES   REMARKS
PATUXENT RIVER CLOUDY    47  47 100 N9        29.60F FOG
ST INIGOES     CLOUDY    49  48  97 N8        29.60S
LEONARDTOWN*   CLOUDY    46  45  93 CALM      29.62S VSB 1

$$

MDZ003>005-230100-
NORTH CENTRAL MARYLAND

CITY           SKY/WX    TMP DP  RH WIND       PRES   REMARKS
FREDERICK*     DRIZZLE   46  46 100 NE7       29.68S
HAGERSTOWN APT CLOUDY    46  43  89 N8        29.64F
WESTMINSTER*   DRIZZLE   46  46 100 NE5       29.64F

$$

MDZ501>502-230100-
WESTERN MARYLAND

CITY           SKY/WX    TMP DP  RH WIND       PRES   REMARKS
OAKLAND*       FOG       41  41 100 SE15      29.58F VSB 1/4
CUMBERLAND*    CLOUDY    46  46 100 CALM      29.68S

$$

VAZ025>031-230100-
SHENANDOAH VALLEY

CITY           SKY/WX    TMP DP  RH WIND       PRES   REMARKS
WINCHESTER*    DRIZZLE   45  43  93 CALM      29.64R
FRONT ROYAL*   CLOUDY    45  45 100 NE3       29.63R
LURAY*         CLOUDY    46  46 100 N8        29.61S FOG
NEW MARKET*    CLOUDY    46  45  95 N6        29.61S
STAUNTON*      LGT RAIN  46  46  98 CALM      29.62S
WAYNESBORO*    CLOUDY    46  45  96 CALM      29.60S

$$

WVZ021-048>050-054>055-230100-
EASTERN WEST VIRGINIA PANHANDLE

CITY           SKY/WX    TMP DP  RH WIND       PRES   REMARKS
MARTINSBURG    CLOUDY    46  44  93 N5        29.64S FOG
PETERSBURG*    LGT RAIN  47  46  94 N6        29.63S

$$

VAZ036>039-050-230100-
CENTRAL FOOTHILLS

CITY           SKY/WX    TMP DP  RH WIND       PRES   REMARKS
CHARLOTTESVILL LGT RAIN  51  49  92 NE8       29.59F FOG
CULPEPER*      RAIN      50  49  97 CALM      29.63S
ORANGE*        RAIN      50  50 100 CALM      29.63S
GORDONSVILLE*  CLOUDY    49  49 100 NE7       29.60S FOG
WARRENTON*     RAIN      50  47  88 NE5       29.62S

$$

VAZ055>057-230100-
NORTH AND CENTRAL PIEDMONT

CITY           SKY/WX    TMP DP  RH WIND       PRES   REMARKS
FREDERICKSBRG* CLOUDY    50  50 100 CALM      29.62S
STAFFORD*      RAIN      49  49 100 NE6       29.66S

$$

NCZ024-NYZ072-PAZ021-071-VAZ022-071-230100-
OTHER REGIONAL OBSERVATIONS

CITY           SKY/WX    TMP DP  RH WIND       PRES   REMARKS
NEW YORK CITY  CLOUDY    46  43  89 VRB7      29.77R
PHILADELPHIA   LGT RAIN  48  46  93 NE13      29.70R FOG
PITTSBURGH     CLOUDY    58  49  72 E8        29.55R
ROANOKE        CLOUDY    52  51  97 SE6       29.55F FOG
RICHMOND       CLOUDY    49  49 100 E3        29.61S FOG
RALEIGH        FOG       54  53  97 E9        29.50F VSB 1/4

$$

ANZ530>537-230100-
MARINE OBSERVATIONS

STATION/POSITION TIME  TEMP    WIND        PRES
                       AIR SEA DIR/SP/G
                 (UTC) (F)     (DEG/KT/KT) (MB)
THOMAS PT LIGHT  0000   45 40   20/ 12/ 13   N/A
BALT KEY BRIDGE  2342           40/  8/ 10 1004.0R
COVE POINT       2342          360/  9/ 11 1003.3R
LEWISETTA        2348      45  350/  2/  4 1002.4R
SOLOMONS ISLAND  2336      42  360/  3/  8   N/A
PINEY POINT      2342           80/  8/ 12   N/A

$$





USA.gov is the U.S. government's official web portal to all federal, state and local government web resources and services.